time_stamp(utc),avg(mph),gust(mph),direction(deg),12m_air_temp(f),sonic_u(cm/s),sonic_v(cm/s),sonic_w(cm/s),pressure,2m_air_temp(f),pyranometer(W/m^2)
"2019-03-24 00:02:06+00",14.5,16.5,,46.5,-598,253,27,1017.77,44.8,0
"2019-03-24 00:07:06+00",11.8,13.8,,45.9,-503,154,42,1017.94,44.6,0
"2019-03-24 00:12:06+00",16.3,17.3,,45.9,-674,272,40,1018.03,44.4,0
"2019-03-24 00:17:06+00",15.2,17.2,,45.8,-629,244,44,1018.07,44.2,0
"2019-03-24 00:22:06+00",15.3,17.3,,45.9,-647,241,38,1018.27,44.2,0
"2019-03-24 00:27:06+00",14.6,16.6,,45.9,-622,216,51,1018.46,44.2,0
"2019-03-24 00:32:06+00",15.5,16.5,,46.1,-672,197,48,1018.36,44.3,0
"2019-03-24 00:37:06+00",14.6,15.6,,46.2,-623,187,38,1018.56,44.5,0
"2019-03-24 00:42:06+00",14.4,16.4,,46.1,-627,177,34,1018.7,44.5,0
"2019-03-24 00:47:06+00",13.2,14.2,,45.9,-584,125,35,1018.82,44.3,0
"2019-03-24 00:52:06+00",13.6,14.6,,45.6,-597,118,34,1018.8,44.1,0
"2019-03-24 00:57:06+00",13.2,14.2,,45.5,-578,126,38,1018.91,43.9,0
"2019-03-24 01:02:06+00",13.5,14.5,,45.5,-590,143,36,1019.03,43.8,0
"2019-03-24 01:07:06+00",14.3,17.3,,45.5,-623,160,37,1018.96,43.7,0
"2019-03-24 01:12:06+00",13.3,16.3,,45.2,-571,158,37,1018.96,43.7,0
"2019-03-24 01:17:06+00",14.4,15.4,,45.2,-604,209,35,1018.95,43.6,0
"2019-03-24 01:22:06+00",12.7,14.7,,45.3,-537,196,40,1018.98,43.5,0
"2019-03-24 01:27:06+00",12.3,13.3,,45,-509,202,32,1019.12,43.5,0
"2019-03-24 01:32:06+00",14.2,16.2,,45,-610,193,40,1019.08,43.5,0
"2019-03-24 01:37:06+00",15.4,18.4,,45.4,-673,185,48,1019.14,43.8,0
"2019-03-24 01:42:06+00",15.7,16.7,,45,-681,195,47,1019.19,43.9,0
"2019-03-24 01:47:06+00",15.7,16.7,,44.8,-668,227,39,1019.2,43.7,0
"2019-03-24 01:52:06+00",16.0,19.0,,44.8,-685,233,44,1019.19,43.6,0
"2019-03-24 01:57:06+00",14.5,15.5,,44.8,-637,180,39,1019.35,43.6,0
"2019-03-24 02:02:06+00",13.6,15.6,,44.5,-584,171,45,1019.41,43.4,0
"2019-03-24 02:07:06+00",14.6,16.6,,44.6,-636,172,52,1019.4,43.5,0
"2019-03-24 02:12:06+00",14.1,15.1,,44.6,-606,179,38,1019.5,43.4,0
"2019-03-24 02:17:06+00",14.1,16.1,,44.5,-602,198,44,1019.6,43.4,0
"2019-03-24 02:22:06+00",14.7,15.7,,44.5,-632,172,44,1019.6,43.3,0
"2019-03-24 02:27:06+00",15.2,16.2,,44.3,-668,161,46,1019.64,43.3,0
"2019-03-24 02:32:06+00",15.4,17.4,,44.1,-660,213,36,1019.6,43.2,0
"2019-03-24 02:37:06+00",14.6,16.6,,44.2,-615,242,38,1019.69,43,0
"2019-03-24 02:42:06+00",13.4,15.4,,44.2,-570,171,34,1019.81,42.9,0
"2019-03-24 02:47:06+00",11.7,12.7,,43.9,-518,75,27,1020.04,42.8,0
"2019-03-24 02:52:06+00",11.1,12.1,,43.8,-482,112,32,1019.97,42.6,0
"2019-03-24 02:57:06+00",12.0,13.0,,44,-526,124,33,1020.01,42.6,0
"2019-03-24 03:02:06+00",12.0,13.0,,43.9,-529,88,25,1020.02,42.5,0
"2019-03-24 03:07:06+00",13.4,14.4,,43.8,-595,40,24,1020.03,42.1,0
"2019-03-24 03:12:06+00",13.3,14.3,,43.7,-586,92,29,1020.03,41.8,0
"2019-03-24 03:17:06+00",11.9,12.9,,43.6,-517,164,25,1019.97,42,0
"2019-03-24 03:22:06+00",11.9,13.9,,43.4,-497,201,25,1019.85,41.8,0
"2019-03-24 03:27:06+00",12.7,13.7,,43.3,-548,177,42,1020.05,41.9,0
"2019-03-24 03:32:06+00",11.8,12.8,,43.1,-516,100,26,1020.26,41.9,0
"2019-03-24 03:37:06+00",12.5,13.5,,43.2,-541,156,29,1020.23,41.9,0
"2019-03-24 03:42:06+00",11.9,12.9,,43.2,-496,185,26,1020.21,41.9,0
"2019-03-24 03:47:06+00",12.6,15.6,,43.2,-518,198,32,1020.27,41.8,0
"2019-03-24 03:52:06+00",12.8,14.8,,43.2,-542,194,40,1020.19,41.9,0
"2019-03-24 03:57:06+00",12.1,13.1,,43.1,-519,150,43,1020.2,42,0
"2019-03-24 04:02:06+00",12.8,14.8,,43,-534,206,43,1020.11,42,0
"2019-03-24 04:07:06+00",15.7,18.7,,42.9,-641,295,43,1020.01,41.8,0
"2019-03-24 04:12:06+00",14.3,16.3,,42.7,-588,270,48,1020.05,41.6,0
"2019-03-24 04:17:06+00",15.5,17.5,,42.6,-600,352,40,1020.1,41.4,0
"2019-03-24 04:22:06+00",14.9,15.9,,42.7,-584,336,42,1020.06,41.4,0
"2019-03-24 04:27:06+00",15.9,17.9,,43,-652,311,42,1020.21,41.5,0
"2019-03-24 04:32:06+00",16.0,18.0,,43.1,-635,323,46,1020.16,41.7,0
"2019-03-24 04:37:06+00",16.7,17.7,,42.9,-649,377,44,1020.17,41.6,0
"2019-03-24 04:42:06+00",14.3,16.3,,42.8,-562,314,45,1020.25,41.5,0
"2019-03-24 04:47:06+00",16.9,20.9,,43,-690,307,43,1020.32,41.6,0
"2019-03-24 04:52:06+00",16.6,18.6,,43.1,-700,257,52,1020.26,41.9,0
"2019-03-24 04:57:06+00",16.2,18.2,,43.1,-693,218,52,1020.32,42.1,0
"2019-03-24 05:02:06+00",17.6,19.6,,42.8,-771,201,52,1020.38,42,0
"2019-03-24 05:07:06+00",17.8,19.8,,42.7,-767,217,58,1020.36,42,0
"2019-03-24 05:12:06+00",17.4,19.4,,42.7,-759,173,53,1020.52,41.9,0
"2019-03-24 05:17:06+00",16.8,17.8,,42.3,-744,166,57,1020.5,41.7,0
"2019-03-24 05:22:06+00",17.2,19.2,,42.2,-756,155,54,1020.63,41.5,0
"2019-03-24 05:27:06+00",16.7,18.7,,42.1,-736,121,51,1020.71,41.3,0
"2019-03-24 05:32:06+00",17.4,19.4,,41.9,-768,138,52,1020.81,41.2,0
"2019-03-24 05:37:06+00",17.9,20.9,,42.1,-786,173,47,1020.71,41.2,0
"2019-03-24 05:42:06+00",16.6,18.6,,42,-725,123,38,1020.83,41.2,0
"2019-03-24 05:47:06+00",15.8,17.8,,41.7,-705,134,60,1020.86,41,0
"2019-03-24 05:52:06+00",16.5,17.5,,41.5,-733,66,36,1020.9,40.7,0
"2019-03-24 05:57:06+00",17.0,19.0,,41.4,-746,-46,22,1021.06,40.6,0
"2019-03-24 06:02:06+00",16.2,18.2,,41.4,-704,-38,28,1021.1,40.4,0
"2019-03-24 06:07:06+00",16.1,18.1,,41.3,-711,63,17,1021.02,40.3,0
"2019-03-24 06:12:06+00",14.8,15.8,,41.3,-651,127,29,1020.81,40.3,0
"2019-03-24 06:17:06+00",15.3,17.3,,41.5,-665,172,40,1020.82,40.4,0
"2019-03-24 06:22:06+00",15.4,17.4,,41.5,-667,166,43,1020.78,40.5,0
"2019-03-24 06:27:06+00",15.9,17.9,,41.1,-693,178,68,1020.75,40.4,0
"2019-03-24 06:32:06+00",15.5,18.5,,40.9,-683,148,46,1020.74,40.2,0
"2019-03-24 06:37:06+00",16.4,17.4,,40.8,-699,246,53,1020.73,40.1,0
"2019-03-24 06:42:06+00",16.4,19.4,,40.8,-663,306,57,1020.62,39.9,0
"2019-03-24 06:47:06+00",15.2,17.2,,40.6,-604,307,39,1020.67,39.6,0
"2019-03-24 06:52:06+00",14.7,16.7,,40.7,-588,299,40,1020.75,39.4,0
"2019-03-24 06:57:06+00",17.2,19.2,,41.3,-686,353,44,1020.75,39.7,0
"2019-03-24 07:02:06+00",16.4,19.4,,41.2,-646,330,52,1020.66,39.9,0
"2019-03-24 07:07:06+00",16.3,19.3,,41.1,-670,309,42,1020.75,39.8,0
"2019-03-24 07:12:06+00",14.9,16.9,,41,-627,261,41,1020.78,39.8,0
"2019-03-24 07:17:06+00",16.9,19.9,,41,-679,326,45,1020.71,39.7,0
"2019-03-24 07:22:06+00",17.0,19.0,,40.9,-672,371,46,1020.76,39.6,0
"2019-03-24 07:27:06+00",16.3,18.3,,40.8,-647,355,37,1020.86,39.5,0
"2019-03-24 07:32:06+00",15.3,16.3,,40.7,-624,295,52,1020.91,39.4,0
"2019-03-24 07:37:06+00",14.7,16.7,,40.7,-595,284,45,1020.94,39.3,0
"2019-03-24 07:42:06+00",14.7,17.7,,40.6,-629,224,43,1021.05,39.2,0
"2019-03-24 07:47:06+00",14.0,17.0,,40.6,-594,183,47,1021.11,39.2,0
"2019-03-24 07:52:06+00",11.5,13.5,,40.2,-503,139,55,1021.06,39.1,0
"2019-03-24 07:57:06+00",13.8,15.8,,40,-594,141,43,1021.08,38.9,0
"2019-03-24 08:02:06+00",13.9,15.9,,39.9,-569,217,25,1021.04,38.6,0
"2019-03-24 08:07:06+00",14.1,16.1,,39.8,-578,260,34,1021.01,38.4,0
"2019-03-24 08:12:06+00",13.2,15.2,,39.9,-535,269,31,1020.99,38.3,0
"2019-03-24 08:17:06+00",13.1,15.1,,40.1,-491,333,42,1021.08,38.2,0
"2019-03-24 08:22:06+00",12.9,14.9,,40.2,-484,308,36,1021.12,38.4,0
"2019-03-24 08:27:06+00",10.7,12.7,,39.8,-365,305,42,1021.1,38.4,0
"2019-03-24 08:32:06+00",10.1,11.1,,38.2,-335,290,22,1021.19,37.2,0
"2019-03-24 08:37:06+00",10.9,12.9,,38.2,-368,324,30,1021.16,36.6,0
"2019-03-24 08:42:06+00",10.8,11.8,,37.5,-342,340,27,1021.05,36.2,0
"2019-03-24 08:47:06+00",10.3,11.3,,37.1,-380,254,25,1021.19,35.9,0
"2019-03-24 08:52:06+00",10.1,12.1,,36.9,-358,264,27,1021.26,35.6,0
"2019-03-24 08:57:06+00",9.0,10.0,,37.2,-345,208,39,1021.31,35.4,0
"2019-03-24 09:02:06+00",10.4,12.4,,37.8,-408,223,26,1021.36,35.6,0
"2019-03-24 09:07:06+00",10.8,11.8,,37.9,-455,158,33,1021.51,35.8,0
"2019-03-24 09:12:06+00",13.7,15.7,,38.8,-594,170,47,1021.54,36.3,0
"2019-03-24 09:17:06+00",11.8,13.8,,38.8,-516,155,35,1021.65,36.8,0
"2019-03-24 09:22:06+00",12.3,13.3,,38.7,-525,179,43,1021.65,37,0
"2019-03-24 09:27:06+00",12.9,14.9,,38.6,-538,200,38,1021.61,36.9,0
"2019-03-24 09:32:06+00",12.2,13.2,,38.4,-535,127,42,1021.71,36.9,0
"2019-03-24 09:37:06+00",13.0,15.0,,38.1,-568,141,41,1021.77,36.8,0
"2019-03-24 09:42:06+00",11.6,12.6,,37.9,-500,150,51,1021.75,36.7,0
"2019-03-24 09:47:06+00",11.0,12.0,,37.8,-481,121,46,1021.8,36.6,0
"2019-03-24 09:52:06+00",10.4,11.4,,37.6,-464,84,30,1021.74,36.4,0
"2019-03-24 09:57:06+00",9.9,10.9,,37.5,-425,64,23,1021.73,36.1,0
"2019-03-24 10:02:06+00",10.4,11.4,,37.4,-455,89,25,1021.73,35.9,0
"2019-03-24 10:07:06+00",10.9,11.9,,37.4,-473,100,33,1021.89,35.8,0
"2019-03-24 10:12:06+00",10.2,11.2,,37.4,-435,142,24,1021.89,35.8,0
"2019-03-24 10:17:06+00",10.9,11.9,,37.5,-463,164,30,1022.02,35.6,0
"2019-03-24 10:22:06+00",11.1,12.1,,37.6,-462,185,34,1022.05,35.5,0
"2019-03-24 10:27:06+00",11.5,12.5,,37.8,-501,132,33,1022.2,35.6,0
"2019-03-24 10:32:06+00",10.6,11.6,,37.8,-451,133,38,1022.25,35.9,0
"2019-03-24 10:37:06+00",11.8,12.8,,37.8,-510,166,43,1022.34,35.9,0
"2019-03-24 10:42:06+00",12.4,14.4,,37.7,-551,112,38,1022.3,36,0
"2019-03-24 10:47:06+00",13.7,14.7,,37.5,-600,117,38,1022.45,36,0
"2019-03-24 10:52:06+00",11.7,13.7,,37.2,-516,36,24,1022.54,35.9,0
"2019-03-24 10:57:06+00",13.7,14.7,,37,-607,30,28,1022.59,35.6,0
"2019-03-24 11:02:06+00",12.8,13.8,,36.8,-562,1,29,1022.73,35.3,0
"2019-03-24 11:07:06+00",12.6,13.6,,36.7,-553,-13,24,1022.86,35.2,0
"2019-03-24 11:12:06+00",13.5,14.5,,36.9,-589,-39,15,1022.95,35.2,0
"2019-03-24 11:17:06+00",14.0,15.0,,37.1,-601,-71,20,1023.08,35.5,0
"2019-03-24 11:22:06+00",12.6,13.6,,37.1,-539,-62,21,1023.03,35.7,0
"2019-03-24 11:27:06+00",11.9,12.9,,37.2,-502,-76,14,1023.08,35.8,23.1
"2019-03-24 11:32:06+00",11.0,13.0,,37.2,-474,-52,16,1023.02,36,31.6
"2019-03-24 11:37:06+00",10.9,12.9,,37.3,-473,-25,28,1022.96,36.3,43.3
"2019-03-24 11:42:06+00",11.2,12.2,,37.7,-489,50,51,1022.89,36.9,54.3
"2019-03-24 11:47:06+00",13.2,16.2,,38,-575,98,40,1023.11,37.5,62.8
"2019-03-24 11:52:06+00",14.2,16.2,,38.3,-623,140,40,1023.06,38.1,77.5
"2019-03-24 11:57:06+00",13.7,14.7,,38.3,-610,78,40,1023.02,38.5,90.3
"2019-03-24 12:02:06+00",15.7,16.7,,38.3,-685,101,33,1023.11,38.8,101.3
"2019-03-24 12:07:06+00",14.9,15.9,,38.2,-657,97,23,1023.21,39,114.5
"2019-03-24 12:12:06+00",14.3,16.3,,38.3,-617,69,36,1023.22,39.3,125.4
"2019-03-24 12:17:06+00",13.3,16.3,,38.7,-589,0,56,1023.35,39.7,138.7
"2019-03-24 12:22:06+00",15.5,17.5,,39.1,-690,45,27,1023.48,40.2,153.3
"2019-03-24 12:27:06+00",14.6,17.6,,39.4,-646,21,22,1023.49,40.6,167.5
"2019-03-24 12:32:06+00",15.0,16.0,,39.9,-658,122,40,1023.52,41,153.6
"2019-03-24 12:37:06+00",15.1,16.1,,40.3,-661,105,18,1023.55,41.3,182.5
"2019-03-24 12:42:06+00",10.8,13.8,,40.6,-475,53,45,1023.57,41.9,155.4
"2019-03-24 12:47:06+00",11.4,13.4,,41,-505,69,34,1023.44,42.3,195.4
"2019-03-24 12:52:06+00",12.3,14.3,,41.5,-537,72,37,1023.56,42.9,208.1
"2019-03-24 12:57:06+00",13.0,16.0,,42,-564,87,26,1023.53,43.4,228.2
"2019-03-24 13:02:06+00",11.9,14.9,,42.3,-525,56,76,1023.39,43.8,222.2
"2019-03-24 13:07:06+00",13.8,14.8,,42.4,-609,104,31,1023.33,43.9,205.3
"2019-03-24 13:12:06+00",12.7,14.7,,42.7,-558,127,33,1023.35,44.3,248.4
"2019-03-24 13:17:06+00",10.2,12.2,,43,-445,58,67,1023.52,44.7,254.2
"2019-03-24 13:22:06+00",11.6,12.6,,43.2,-515,63,20,1023.51,45.1,260.7
"2019-03-24 13:27:06+00",12.7,13.7,,43.5,-553,145,24,1023.53,45.5,269.1
"2019-03-24 13:32:06+00",11.3,13.3,,43.9,-496,86,33,1023.62,45.6,265.7
"2019-03-24 13:37:06+00",13.7,15.7,,44.2,-561,234,34,1023.54,45.9,282.9
"2019-03-24 13:42:06+00",12.1,13.1,,44.4,-502,191,28,1023.5,46.1,290.6
"2019-03-24 13:47:06+00",12.7,14.7,,44.5,-524,235,34,1023.53,46.2,282.9
"2019-03-24 13:52:06+00",12.6,14.6,,44.3,-540,164,28,1023.59,46.2,307.1
"2019-03-24 13:57:06+00",12.6,14.6,,44.6,-534,186,53,1023.67,46.3,294.7
"2019-03-24 14:02:06+00",13.9,14.9,,44.8,-590,193,17,1023.63,46.5,321.4
"2019-03-24 14:07:06+00",12.8,14.8,,45.2,-551,161,46,1023.54,46.8,330.1
"2019-03-24 14:12:06+00",12.5,14.5,,45.5,-547,149,45,1023.51,47.2,339.5
"2019-03-24 14:17:06+00",11.6,13.6,,46.1,-463,215,62,1023.49,47.6,348
"2019-03-24 14:22:06+00",11.8,12.8,,46.6,-493,187,53,1023.37,48.2,357.2
"2019-03-24 14:27:06+00",11.6,14.6,,46.6,-482,184,33,1023.15,48.5,366.7
"2019-03-24 14:32:06+00",14.2,15.2,,46.6,-614,142,24,1023.24,48.7,375.2
"2019-03-24 14:37:06+00",12.1,14.1,,47.1,-533,51,76,1023.19,48.9,382.4
"2019-03-24 14:42:06+00",13.3,14.3,,47.1,-590,89,40,1023.06,49,390
"2019-03-24 14:47:06+00",12.6,13.6,,47.3,-556,124,44,1023.1,49.3,398.9
"2019-03-24 14:52:06+00",14.1,15.1,,47.8,-617,160,41,1023.18,49.6,407.4
"2019-03-24 14:57:06+00",13.4,15.4,,47.7,-581,177,48,1022.99,49.7,414.7
"2019-03-24 15:02:06+00",13.8,15.8,,47.9,-601,180,56,1022.83,49.8,422.7
"2019-03-24 15:07:06+00",13.7,14.7,,48.3,-577,216,43,1022.84,50,427.3
"2019-03-24 15:12:06+00",13.4,15.4,,48.7,-573,196,40,1022.82,50.4,437.5
"2019-03-24 15:17:06+00",14.6,16.6,,48.7,-636,211,42,1022.89,50.5,446.8
"2019-03-24 15:22:06+00",12.8,14.8,,48.9,-531,210,29,1022.81,50.8,452.3
"2019-03-24 15:27:06+00",13.0,14.0,,49.1,-535,226,37,1022.86,51,446.4
"2019-03-24 15:32:06+00",12.3,14.3,,49.1,-510,202,26,1022.69,51.2,465.1
"2019-03-24 15:37:06+00",12.1,13.1,,49.6,-508,199,15,1022.74,51.7,447
"2019-03-24 15:42:06+00",10.2,11.2,,49.7,-438,101,14,1022.62,51.9,451
"2019-03-24 15:47:06+00",11.1,12.1,,50,-481,130,26,1022.54,52.1,470.3
"2019-03-24 15:52:06+00",10.7,12.7,,50,-463,117,30,1022.51,52.3,490.5
"2019-03-24 15:57:06+00",9.8,10.8,,50.2,-418,106,33,1022.42,52.5,498.4
"2019-03-24 16:02:06+00",10.4,12.4,,50.5,-456,39,25,1022.33,53.1,491.8
"2019-03-24 16:07:06+00",9.9,10.9,,50.7,-415,151,12,1022.27,53.5,499.9
"2019-03-24 16:12:06+00",8.9,9.9,,50.8,-359,170,43,1022.23,53.7,470
"2019-03-24 16:17:06+00",7.2,8.2,,50.9,-307,-55,36,1022.22,53.9,403.9
"2019-03-24 16:22:06+00",10.3,12.3,,51.5,-448,80,33,1022.25,54.6,497.6
"2019-03-24 16:27:06+00",9.9,11.9,,51.7,-436,55,14,1022.18,54.7,474.7
"2019-03-24 16:32:06+00",9.6,11.6,,51.8,-408,120,4,1022.05,54.7,492.1
"2019-03-24 16:37:06+00",9.5,11.5,,52.3,-403,128,33,1021.99,55,522.3
"2019-03-24 16:42:06+00",14.4,16.4,,52.8,-633,87,17,1021.93,55.1,481.7
"2019-03-24 16:47:06+00",10.6,12.6,,52.8,-466,27,17,1021.73,55.1,514.6
"2019-03-24 16:52:06+00",8.8,9.8,,52.8,-355,-136,34,1021.74,55.4,462.5
"2019-03-24 16:57:06+00",10.4,14.4,,53.4,-434,-111,49,1021.52,56.2,454.5
"2019-03-24 17:02:06+00",10.2,13.2,,53.3,-421,-130,42,1021.48,56.9,504.1
"2019-03-24 17:07:06+00",9.6,12.6,,53.6,-386,-206,33,1021.48,57.5,508.4
"2019-03-24 17:12:06+00",15.8,17.8,,54,-680,-65,18,1021.49,57.7,509.5
"2019-03-24 17:17:06+00",11.9,13.9,,54.4,-509,-75,61,1021.39,57.6,497.3
"2019-03-24 17:22:06+00",10.1,12.1,,54.6,-435,-152,60,1021.29,58.1,425.3
"2019-03-24 17:27:06+00",12.7,15.7,,54.6,-536,-104,43,1021.19,58.3,292.5
"2019-03-24 17:32:06+00",12.0,14.0,,54.8,-516,-43,69,1021.27,58.4,519.4
"2019-03-24 17:37:06+00",13.0,14.0,,55.2,-554,-252,41,1021.07,58.6,500.7
"2019-03-24 17:42:06+00",15.2,17.2,,55.2,-640,-220,39,1021.08,58.9,491.6
"2019-03-24 17:47:06+00",13.7,16.7,,55.3,-599,16,32,1020.81,59,503.1
"2019-03-24 17:52:06+00",12.6,14.6,,55.3,-557,-3,54,1020.72,58.5,508.4
"2019-03-24 17:57:06+00",13.5,16.5,,56,-591,-249,57,1020.66,58.7,418.4
"2019-03-24 18:02:06+00",12.2,14.2,,55.9,-523,-81,26,1020.52,58.8,451.3
"2019-03-24 18:07:06+00",15.5,17.5,,56.2,-678,130,43,1020.37,58.4,424.8
"2019-03-24 18:12:06+00",16.0,19.0,,56.6,-701,-13,47,1020.27,58.2,448.7
"2019-03-24 18:17:06+00",13.4,15.4,,57,-588,17,125,1020.21,58.3,427.2
"2019-03-24 18:22:06+00",17.7,19.7,,56.5,-786,96,54,1020.1,58.1,417
"2019-03-24 18:27:06+00",17.6,20.6,,56.2,-772,163,64,1020.03,58,462.3
"2019-03-24 18:32:06+00",18.6,20.6,,56.5,-823,115,44,1019.96,57.9,449.4
"2019-03-24 18:37:06+00",17.8,19.8,,56.9,-787,104,26,1019.85,58.3,457.7
"2019-03-24 18:42:06+00",13.8,17.8,,57.7,-619,20,97,1019.8,58.9,469.3
"2019-03-24 18:47:06+00",15.5,19.5,,57.5,-689,95,38,1019.9,59.2,349.6
"2019-03-24 18:52:06+00",18.4,20.4,,57,-807,168,43,1019.64,58.8,257.1
"2019-03-24 18:57:06+00",13.3,16.3,,57.3,-583,5,74,1019.68,58.6,334.7
"2019-03-24 19:02:06+00",18.1,22.1,,57.4,-797,-5,40,1019.51,58.7,293
"2019-03-24 19:07:06+00",18.9,20.9,,58,-829,89,50,1019.41,59.3,460.5
"2019-03-24 19:12:06+00",19.5,22.5,,57.7,-869,56,43,1019.25,59.5,324
"2019-03-24 19:17:06+00",17.3,20.3,,57.9,-775,20,42,1019.23,59.5,323.7
"2019-03-24 19:22:06+00",17.0,19.0,,58.1,-754,76,62,1019.2,59.6,232.4
"2019-03-24 19:27:06+00",12.9,13.9,,57.6,-557,-58,22,1019.2,59,156
"2019-03-24 19:32:06+00",11.9,14.9,,57.7,-539,30,60,1019.17,59.3,331.4
"2019-03-24 19:37:06+00",17.6,23.6,,58.7,-764,-48,67,1018.94,60.4,370.4
"2019-03-24 19:42:06+00",19.8,21.8,,58.9,-871,-12,11,1018.71,61,278.6
"2019-03-24 19:47:06+00",16.2,18.2,,58.6,-678,-183,48,1018.74,60.4,113.6
"2019-03-24 19:52:06+00",14.4,17.4,,57.6,-630,-245,22,1018.72,59.2,147.2
"2019-03-24 19:57:06+00",17.7,21.7,,58.2,-755,-209,35,1018.69,59.9,331.5
"2019-03-24 20:02:06+00",16.4,20.4,,58.1,-682,-342,28,1018.47,60.1,297.9
"2019-03-24 20:07:06+00",19.5,22.5,,57.8,-726,-475,27,1018.54,59.9,288.6
"2019-03-24 20:12:06+00",19.6,22.6,,57.6,-636,-585,-5,1018.4,59.4,269.6
"2019-03-24 20:17:06+00",21.0,24.0,,57.1,-652,-682,7,1018.35,58.5,273.5
"2019-03-24 20:22:06+00",20.4,23.4,,57,-614,-702,26,1018.21,58.3,284.8
"2019-03-24 20:27:06+00",21.6,24.6,,54.1,-428,-834,-12,1018.17,55.9,173.4
"2019-03-24 20:32:06+00",24.3,27.3,,52.6,-553,-924,-5,1018.19,53.9,134.4
"2019-03-24 20:37:06+00",22.2,28.2,,52.8,-395,-879,0,1018.3,54,282.3
"2019-03-24 20:42:06+00",20.9,25.9,,52.7,-345,-845,18,1018.33,54.2,238
"2019-03-24 20:47:06+00",18.2,21.2,,52.2,-404,-702,21,1018.28,53.5,231.3
"2019-03-24 20:52:06+00",20.2,24.2,,52.3,-457,-770,5,1018.36,53.5,270.2
"2019-03-24 20:57:06+00",20.7,24.7,,52.4,-430,-806,7,1018.21,53.9,256.3
"2019-03-24 21:02:06+00",20.4,24.4,,52.5,-407,-797,11,1018.13,53.8,221.6
"2019-03-24 21:07:06+00",21.6,26.6,,52.3,-477,-827,3,1018.15,53.5,216.1
"2019-03-24 21:12:06+00",19.9,22.9,,51.9,-391,-774,9,1018.09,53.1,186
"2019-03-24 21:17:06+00",21.4,25.4,,51.5,-375,-852,16,1018.04,52.7,179.2
"2019-03-24 21:22:06+00",21.7,25.7,,50.8,-450,-833,-17,1018.15,51.8,119.6
"2019-03-24 21:27:06+00",23.3,28.3,,50.3,-459,-905,-4,1018.11,51.1,74.5
"2019-03-24 21:32:06+00",20.8,24.8,,49.8,-399,-814,7,1017.92,50.4,66.8
"2019-03-24 21:37:06+00",22.8,26.8,,49.3,-428,-891,-13,1017.83,49.9,41.3
"2019-03-24 21:42:06+00",21.6,25.6,,49.4,-439,-834,1,1017.8,49.7,59.6
"2019-03-24 21:47:06+00",19.6,22.6,,49.3,-461,-739,1,1017.82,49.7,37.2
"2019-03-24 21:52:06+00",19.3,23.3,,49,-407,-744,8,1017.7,49.3,24.3
"2019-03-24 21:57:06+00",22.2,24.2,,48.9,-525,-837,-9,1017.7,49.1,10.6
"2019-03-24 22:02:06+00",18.4,21.4,,48.6,-383,-709,5,1017.7,48.8,14.8
"2019-03-24 22:07:06+00",19.7,22.7,,48.3,-405,-755,-5,1017.64,48.5,13
"2019-03-24 22:12:06+00",22.4,24.4,,48.2,-486,-851,-19,1017.44,48.4,2.7
"2019-03-24 22:17:06+00",20.3,23.3,,48,-391,-791,0,1017.32,48.1,0
"2019-03-24 22:22:06+00",19.5,23.5,,47.9,-507,-717,5,1017.59,47.9,0
"2019-03-24 22:27:06+00",16.1,18.1,,48.2,-511,-489,9,1018.03,48,0
"2019-03-24 22:32:06+00",20.4,24.4,,48.6,-681,-563,63,1018.04,48.4,0
"2019-03-24 22:37:06+00",19.2,23.2,,48.4,-621,-568,37,1018.26,48.3,0
"2019-03-24 22:42:06+00",16.7,19.7,,48.2,-546,-505,28,1018.19,48.1,0
"2019-03-24 22:47:06+00",19.0,25.0,,48.2,-632,-532,38,1018.09,48,0
"2019-03-24 22:52:06+00",21.8,25.8,,48.1,-715,-635,28,1018.1,47.9,0
"2019-03-24 22:57:06+00",20.9,23.9,,48.1,-688,-596,16,1018.23,47.9,0
"2019-03-24 23:02:06+00",20.8,23.8,,47.9,-658,-676,18,1018.17,47.7,0
"2019-03-24 23:07:06+00",20.9,26.9,,47.8,-664,-645,17,1018.22,47.6,0
"2019-03-24 23:12:06+00",20.9,23.9,,47.7,-601,-741,25,1018,47.5,0
"2019-03-24 23:17:06+00",22.4,28.4,,47.8,-573,-837,25,1017.56,47.5,0
"2019-03-24 23:22:06+00",20.3,22.3,,47.8,-661,-599,29,1018.34,47.5,0
"2019-03-24 23:27:06+00",22.2,26.2,,47.9,-710,-696,7,1018.36,47.6,0
"2019-03-24 23:32:06+00",23.2,25.2,,48,-762,-655,13,1018.41,47.6,0
"2019-03-24 23:37:06+00",18.9,21.9,,47.8,-607,-562,31,1018.52,47.5,0
"2019-03-24 23:42:06+00",19.6,23.6,,47.8,-622,-608,-4,1018.47,47.5,0
"2019-03-24 23:47:06+00",17.8,20.8,,47.7,-534,-609,16,1018.22,47.4,0
"2019-03-24 23:52:06+00",19.4,24.4,,47.7,-610,-636,14,1018.36,47.4,0
"2019-03-24 23:57:06+00",18.8,22.8,,47.8,-583,-628,17,1018.32,47.4,0
